Location: Newark
(34.1333°N, 7.9667°W)
Time: 03:59:05
(UTC+00:00)

ITAMSAT 1 - Pass Details

Date: 21 April 2024
Orbit: 781 x 796 km, 98.8° (Epoch: 27 May)

Event Time Altitude Azimuth Distance (km) Brightness Sun altitude
Exits shadow 19:27:27 - 98° (E) 2,806 9.8 -4.6°
Reaches altitude 10° 19:30:18 10° 71° (ENE) 2,366 9.7 -5.2°
Maximum altitude 19:31:09 10° 62° (ENE) 2,341 9.7 -5.3°
Drops below altitude 10° 19:31:59 10° 52° (NE) 2,368 9.8 -5.5°
Sets 19:36:41 0° 14° (NNE) 3,304 11.0 -6.4°
